Spiottero Dimir
| Nome | Spiottero Dimir |
|---|---|
| Predefinito | Dimir Spybug |
| Tipo | Creatura — insetto |
| Descrizione | Volare Minacciare (Questa creatura non può essere bloccata tranne che da due o più creature.) Ogniqualvolta sorvegli, metti un segnalino +1/+1 sullo Spiottero Dimir. |
| Gusto | Meglio dare per scontato che qualsiasi conversazione sia di pubblico dominio. |
| Artista | James Paick |
| Espansione | Omicidi al comandante di Karlov Manor #206 |
| Carta da parati | |
| Immagine |
Di Spiottero Dimir
Spiottero Dimir, Creatura — insetto, progettato da James Paick rilasciato per la prima volta maggio 2020 in redazione Guilds of Ravnica ed è stato stampato esattamente in 2 forme diverse. Attualmente viene venduto al prezzo più basso di € 0,02.
Dimir Spybug sarebbe un ottimo aggiunta a un mazzo di sorveglianza Dimir in Magic: The Gathering, beneficiando della sinergia con le meccaniche di sorveglianza per diventare più forte nel tempo. Mentre potrebbero esserci altre carte che offrono benefici simili, la combinazione di volare, minaccia e potenziale di crescita di Dimir Spybug lo rendono un'aggiunta preziosa in un tale mazzo. Dovrebbe sicuramente essere giocato in una strategia focalizzata sulla sorveglianza per la sua capacità di applicare pressione e diventare una minaccia significativa per l'avversario.
Rugole
05/10/2018
You put only one +1/+1 counter on Dimir Spybug each time you surveil, no matter how many cards you looked at when you surveilled.
Dove comprare
![]() | TCG Player | 8 uni.
| € 0,02 | visita il negozio |
![]() | Card Kingdom | 22 uni.
| € 0,30 | visita il negozio |
![]() | Ebay.com | visita il negozio | ||
![]() | Cardkingdom | visita il negozio | ||
![]() | Printing proxies | $ 0.75 | visita il negozio |
*Questo sito contiene link di affiliazione per i quali potremmo ricevere un compenso
Gruppo
avviso di prezzo ?
Avvisami quando arriva il prezzo
Storico dell'andamento dei prezzi

Storico dei prezzi
| Data | Prezzo minimo | Prezzo medio | Decks |
|---|---|---|---|
| 2024-09-06 | 0.03 EUR | 0.18 EUR | 0 |
| 2024-09-09 | 0.03 EUR | 0.18 EUR | 0 |
| 2024-09-16 | 0.02 EUR | 0.18 EUR | 0 |
| 2024-09-23 | 0.02 EUR | 0.18 EUR | 0 |
| 2024-09-30 | 0.02 EUR | 0.18 EUR | 0 |
| 2024-10-07 | 0.02 EUR | 0.18 EUR | 0 |
| 2024-10-14 | 0.02 EUR | 0.18 EUR | 2 |
| 2024-10-21 | 0.02 EUR | 0.18 EUR | 0 |
| 2024-10-28 | 0.02 EUR | 0.18 EUR | 0 |
| 2024-11-06 | 0.02 EUR | 0.18 EUR | 0 |
| 2024-11-11 | 0.02 EUR | 0.18 EUR | 0 |
| 2024-11-18 | 0.02 EUR | 0.19 EUR | 0 |
| 2024-11-25 | 0.02 EUR | 0.19 EUR | 0 |
| 2024-12-02 | 0.02 EUR | 0.19 EUR | 1 |
| 2024-12-09 | 0.02 EUR | 0.19 EUR | 0 |
| 2024-12-19 | 0.02 EUR | 0.19 EUR | 0 |
| 2024-12-23 | 0.02 EUR | 0.19 EUR | 0 |
| 2024-12-30 | 0.02 EUR | 0.19 EUR | 1 |
| 2025-01-01 | 0.02 EUR | 0.19 EUR | 1 |
| 2025-01-06 | 0.02 EUR | 0.19 EUR | 0 |
| 2025-01-13 | 0.02 EUR | 0.19 EUR | 0 |
| 2025-01-20 | 0.02 EUR | 0.19 EUR | 0 |
| 2025-01-27 | 0.02 EUR | 0.19 EUR | 0 |
| 2025-02-03 | 0.02 EUR | 0.19 EUR | 0 |
| 2025-02-10 | 0.02 EUR | 0.19 EUR | 0 |
| 2025-02-18 | 0.01 EUR | 0.18 EUR | 0 |
| 2025-04-27 | 0.02 EUR | 0.19 EUR | 0 |
| 2025-04-28 | 0.01 EUR | 0.18 EUR | 0 |
| 2025-05-06 | 0.01 EUR | 0.18 EUR | 0 |
| 2025-05-12 | 0.01 EUR | 0.18 EUR | 0 |
| 2025-05-19 | 0.01 EUR | 0.20 EUR | 0 |
| 2025-05-28 | 0.01 EUR | 0.20 EUR | 0 |
| 2025-06-03 | 0.01 EUR | 0.18 EUR | 0 |
| 2025-06-10 | 0.01 EUR | 0.18 EUR | 0 |
| 2025-06-17 | 0.03 EUR | 0.18 EUR | 0 |
| 2025-06-23 | 0.04 EUR | 0.18 EUR | 0 |
| 2025-07-01 | 0.04 EUR | 0.18 EUR | 0 |
| 2025-07-08 | 0.02 EUR | 0.18 EUR | 0 |
| 2025-07-15 | 0.02 EUR | 0.17 EUR | 0 |
| 2025-07-22 | 0.02 EUR | 0.18 EUR | 0 |
| 2025-07-29 | 0.02 EUR | 0.18 EUR | 0 |
| 2025-08-05 | 0.02 EUR | 0.22 EUR | 0 |
| 2025-08-12 | 0.02 EUR | 0.17 EUR | 0 |
| 2025-08-18 | 0.03 EUR | 0.18 EUR | 0 |
| 2025-08-25 | 0.02 EUR | 0.18 EUR | 0 |
| 2025-09-02 | 0.03 EUR | 0.18 EUR | 1 |
| 2025-09-09 | 0.03 EUR | 0.18 EUR | 0 |
| 2025-09-15 | 0.03 EUR | 0.18 EUR | 0 |
| 2025-09-23 | 0.02 EUR | 0.17 EUR | 0 |
| 2025-09-29 | 0.02 EUR | 0.17 EUR | 0 |
| 2025-10-06 | 0.02 EUR | 0.17 EUR | 0 |
| 2025-10-13 | 0.02 EUR | 0.17 EUR | 0 |
| 2025-10-20 | 0.02 EUR | 0.17 EUR | 0 |
| 2025-10-27 | 0.02 EUR | 0.17 EUR | 0 |
| 2025-11-03 | 0.02 EUR | 0.17 EUR | 0 |
| 2025-11-10 | 0.02 EUR | 0.17 EUR | 0 |
| 2025-11-18 | 0.02 EUR | 0.17 EUR | 0 |
| 2025-11-24 | 0.02 EUR | 0.17 EUR | 0 |
| 2025-12-03 | 0.02 EUR | 0.17 EUR | 0 |
| 2025-12-08 | 0.02 EUR | 0.17 EUR | 0 |
| 2025-12-15 | 0.02 EUR | 0.17 EUR | 0 |
| 2025-12-22 | 0.02 EUR | 0.17 EUR | 0 |
| 2025-12-29 | 0.02 EUR | 0.17 EUR | 0 |
| 2026-01-01 | 0.02 EUR | 0.17 EUR | 0 |
| 2026-01-05 | 0.04 EUR | 0.18 EUR | 0 |
| 2026-01-13 | 0.02 EUR | 0.17 EUR | 0 |
| 2026-01-20 | 0.02 EUR | 0.17 EUR | 0 |
| 2026-01-26 | 0.02 EUR | 0.16 EUR | 0 |
| 2026-02-02 | 0.02 EUR | 0.16 EUR | 0 |
| 2026-02-09 | 0.02 EUR | 0.16 EUR | 0 |
| 2026-02-16 | 0.02 EUR | 0.16 EUR | 0 |
| 2026-02-23 | 0.02 EUR | 0.16 EUR | 0 |
| 2026-03-02 | 0.02 EUR | 0.16 EUR | 0 |
| 2026-03-10 | 0.03 EUR | 0.17 EUR | 0 |
| 2026-03-16 | 0.03 EUR | 0.17 EUR | 0 |
| 2026-04-02 | 0.02 EUR | 0.16 EUR | 1 |
| 2026-04-07 | 0.01 EUR | 0.16 EUR | 0 |
| 2026-04-14 | 0.03 EUR | 0.16 EUR | 0 |
| 2026-04-23 | 0.02 EUR | 0.16 EUR | 0 |
| 2026-04-30 | 0.01 EUR | 0.15 EUR | 0 |
| 2026-05-05 | 0.02 EUR | 0.16 EUR | 0 |
| 2026-05-14 | 0.04 EUR | 0.17 EUR | 0 |
| 2026-05-20 | 0.03 EUR | 0.16 EUR | 0 |
| 2026-05-25 | 0.04 EUR | 0.17 EUR | 0 |
| 2026-06-01 | 0.04 EUR | 0.17 EUR | 0 |
| 2026-06-08 | 0.04 EUR | 0.17 EUR | 0 |
| 2026-06-15 | 0.04 EUR | 0.17 EUR | 0 |
| 2026-06-23 | 0.04 EUR | 0.17 EUR | 0 |
| 2026-06-29 | 0.04 EUR | 0.17 EUR | 0 |
| 2026-07-06 | 0.03 EUR | 0.19 EUR | 0 |
| 2026-07-13 | 0.02 EUR | 0.21 EUR | 0 |
| 2026-07-20 | 0.04 EUR | 0.21 EUR | 0 |
| 2026-07-27 | 0.02 EUR | 0.21 EUR | 0 |
| 2026-08-03 | 0.02 EUR | 0.21 EUR | 0 |
| 2026-08-10 | 0.02 EUR | 0.20 EUR | 0 |
| 2026-08-17 | 0.02 EUR | 0.16 EUR | 0 |
| 2026-08-24 | 0.02 EUR | 0.16 EUR | 0 |
| 2026-09-01 | 0.02 EUR | 0.16 EUR | 0 |
Domande frequenti su Spiottero Dimir
Che tipo di carta è Spiottero Dimir?
Spiottero Dimir è Creatura — insetto carta inserita Magic: the Gathering MTG.
Qual è l'effetto della carta Spiottero Dimir?
Volare Minacciare (Questa creatura non può essere bloccata tranne che da due o più creature.) Ogniqualvolta sorvegli, metti un segnalino +1/+1 sullo Spiottero Dimir.
Qual è il prezzo della carta Spiottero Dimir?
Spiottero Dimir attualmente inizia alle € 0,02. Visualizza i prezzi in tempo reale di più venditori nella sezione Dove acquistare sopra.
Qual è il set originale della carta Spiottero Dimir?
Spiottero Dimir è stato rilasciato per la prima volta nel set Guilds of Ravnica, illustrato da James Paick.
Qual è la legalità della carta Spiottero Dimir?
La legalità dipende dal formato del torneo: Spiottero Dimir può essere legale in alcuni formati e vietato o limitato in altri. Consulta la ripartizione completa per formato nella sezione Legalità sopra.
Quali carte sono simili a Spiottero Dimir?
Carte simili a Spiottero Dimir includere Ricercatrice del Sangue, Sommelier del Sangue, Monster Mashup. Consulta l'elenco completo nella sezione Carte simili sopra.






Reazioni
0
0 Commenti
Diventa il primo a commentare